Погода в Большой Берестовице

Беларусь     53°11′30″N   24°01′06″E
темп.,
°C
ветер,
м/с
пор.,
м/с
влажн.,
%
обл.,
%
осадки,
мм/ч
давл.,
гПа
погр.,
м
16 апреля, пт
пт1600:00+4с5997100 0.6 1016508
03:00+4с51096100 0.7 1015495
06:00+4ссв61297100 0.6 1013583
09:00+6ссв61096100 0.7 1013457
12:00+6ссв5995100 0.4 1013466
15:00+7ссв4893100 0.5 1014470
18:00+10ссв61088100 0.1 1013637
21:00+8ссв6119595 4.5 1014458
17 апреля, сб
сб1700:00+7св5119513 0.4 1015268
03:00+5св39978 0.4 1016192
06:00+4св379630 0.0 1017127
09:00+7всв458896 0.0 1018272
12:00+9св4486100 0.1 1019423
15:00+13всв35635 0.1 10181134
18:00+13св456235 0.4 10181060
21:00+9всв337790 0.9 101928
18 апреля, вс
вс1800:00+7в2283100 0.0 102012
03:00+7ссв2384100 0.0 102043
06:00+7ссв3793100 0.1 1019193
09:00+9ссв478849 0.3 1019381
12:00+13св5769100 0.0 10181172
15:00+11всв5777100 0.1 1020839
18:00+10всв5776100 0.0 1020785
21:00+8св497978 0.0 1020386
19 апреля, пн
пн1900:00+6св389244 0.0 1020181
03:00+4св36966 0.0 1020132
06:00+3св379822 0.0 1020143
09:00+6всв468768 0.0 1019423
12:00+9всв4573100 0.1 10181074
15:00+8св4669100 0.1 1018857
18:00+9ссв5774100 0.1 1016878
21:00+7св4885100 0.1 1015521
20 апреля, вт
вт2000:00+6ссв3789100 0.1 1014451
03:00+6с3793100 0.3 1012338
06:00+5ссз469398 0.1 1010383
09:00+5ссз3693100 0.3 1008565
12:00+7с347989 0.2 1007655
15:00+9ссз456685 0.6 10051018
18:00+8сз798287 0.9 1004905
21:00+6ссз61090100 1.6 1004708